Flag for U.S.A. Weather past 2 weeks in Menominee, Michigan, U.S.A.

Now
18 °F

Passing clouds.


Feels Like: 6 °F
Forecast: 9 / 18 °F
Wind: 10 mph from North

Location: Menominee Weather Reporting Station

Current Time: Jan 29, 2015 at 11:20:52 PM

Latest Report: Jan 29, 2015 at 10:55 PM


Visibility: 10 mi

Pressure: 30.34 "Hg

Humidity: 58%

Dew point: 5 °F

Location of MenomineeLocation

Historic Weather in Menominee — Graph

°F

Menominee temperature yesterday

Maximum temperature yesterday: 30 °F (at 12:15 PM)
Minimum temperature yesterday: 18 °F (at 2:55 AM)
Average temperature yesterday: 26 °F

Past Weeks' High & Low Weather Summary

 TemperatureHumidityPressure
High39 °F (Jan 17, 12:35 PM)100% (Jan 27, 3:15 AM)30.37 "Hg (Jan 27, 3:15 AM)
Low5 °F (Jan 25, 11:55 PM)45% (Jan 16, 11:15 AM)29.39 "Hg (Jan 17, 2:35 PM)
Average25 °F74%29.96 "Hg
* Reported Jan 14 10:15 PM — Jan 29 10:15 PM, Menominee, Weather by CustomWeather, © 2014

Note: Actual official high and low records may vary slightly from our data, if they occured in-between our weather recording intervals... More about our weather records

Advertising

Menominee weather history for previous 24 hours

 ConditionsComfort  
Time TempWeatherWind HumidityBarometerVisibility
10:15 PM
Jan 29
18 °FClear.9 mph62%30.32 "Hg10 mi
9:35 PM19 °FPassing clouds.10 mph63%30.30 "Hg10 mi
9:15 PM19 °FClear.7 mph63%30.29 "Hg10 mi
8:55 PM19 °FClear.10 mph63%30.28 "Hg10 mi
8:35 PM19 °FPassing clouds.10 mph63%30.27 "Hg10 mi
8:15 PM19 °FClear.16 mph63%30.26 "Hg10 mi
7:55 PM21 °FClear.10 mph58%30.24 "Hg10 mi
7:35 PM21 °FClear.14 mph58%30.23 "Hg10 mi
7:15 PM21 °FPassing clouds.15 mph58%30.22 "Hg10 mi
6:55 PM21 °FPassing clouds.15 mph54%30.21 "Hg10 mi
6:35 PM23 °FPassing clouds.24 mph58%30.19 "Hg10 mi
6:15 PM23 °FPassing clouds.13 mph54%30.17 "Hg10 mi
5:55 PM25 °FPassing clouds.16 mph50%30.15 "Hg10 mi
5:35 PM27 °FPassing clouds.22 mph50%30.13 "Hg10 mi
5:15 PM27 °FOvercast.17 mph54%30.10 "Hg10 mi
4:55 PM28 °FOvercast.18 mph59%30.08 "Hg10 mi
4:35 PM28 °FOvercast.14 mph64%30.06 "Hg10 mi
4:15 PM28 °FOvercast.16 mph64%30.04 "Hg10 mi
3:55 PM30 °FMostly cloudy.20 mph59%30.02 "Hg10 mi
3:35 PM30 °FMostly cloudy.15 mph59%30.00 "Hg10 mi
3:15 PM32 °FMostly cloudy.20 mph55%29.97 "Hg10 mi
2:55 PM32 °FOvercast.20 mph60%29.96 "Hg10 mi
2:35 PM34 °FOvercast.20 mph56%29.93 "Hg10 mi
2:15 PM34 °FOvercast.20 mph60%29.92 "Hg10 mi
1:55 PM34 °FOvercast.18 mph65%29.90 "Hg10 mi
1:35 PM34 °FOvercast.18 mph70%29.89 "Hg10 mi
1:15 PM34 °FOvercast.10 mph65%29.89 "Hg10 mi
12:55 PM34 °FOvercast.13 mph65%29.89 "Hg10 mi
12:35 PM34 °FOvercast.9 mph65%29.89 "Hg10 mi
12:15 PM34 °FOvercast.17 mph65%29.89 "Hg10 mi
11:55 AM32 °FOvercast.10 mph69%29.89 "Hg10 mi
11:35 AM32 °FOvercast.17 mph69%29.89 "Hg10 mi
11:15 AM32 °FOvercast.16 mph69%29.89 "Hg10 mi
10:55 AM32 °FOvercast.16 mph75%29.88 "Hg10 mi
10:35 AM32 °FMostly cloudy.13 mph75%29.88 "Hg10 mi
10:15 AM32 °FMostly cloudy.12 mph75%29.87 "Hg10 mi
9:55 AM30 °FOvercast.9 mph86%29.86 "Hg9 mi
9:35 AM30 °FOvercast.13 mph86%29.85 "Hg8 mi
9:15 AM30 °FOvercast.12 mph86%29.84 "Hg8 mi
8:55 AM30 °FOvercast.9 mph80%29.83 "Hg7 mi
8:35 AM30 °FOvercast.10 mph80%29.83 "Hg7 mi
7:55 AM28 °FOvercast.8 mph86%29.81 "Hg7 mi
7:35 AM28 °FOvercast.10 mph86%29.80 "Hg6 mi
7:15 AM28 °FOvercast.7 mph86%29.79 "Hg5 mi
6:55 AM28 °FOvercast.7 mph86%29.79 "Hg5 mi
6:35 AM28 °FOvercast.7 mph86%29.78 "Hg5 mi
6:15 AM28 °FOvercast.7 mph86%29.77 "Hg5 mi
5:55 AM28 °FMostly cloudy.6 mph93%29.76 "Hg3 mi
5:35 AM28 °FOvercast.3 mph93%29.76 "Hg2 mi
5:15 AM30 °FMostly cloudy.5 mph80%29.76 "Hg2 mi
4:55 AM30 °FOvercast.3 mph80%29.76 "Hg6 mi
4:35 AM30 °FOvercast.No wind80%29.76 "Hg7 mi
3:55 AM30 °FOvercast.No wind80%29.77 "Hg7 mi
3:35 AM30 °FOvercast.No wind80%29.77 "Hg8 mi
3:15 AM30 °FOvercast.3 mph80%29.78 "Hg8 mi
2:55 AM30 °FOvercast.3 mph80%29.78 "Hg8 mi
2:35 AM30 °FOvercast.6 mph80%29.79 "Hg7 mi
2:15 AM30 °FOvercast.No wind80%29.80 "Hg9 mi
1:55 AM30 °FOvercast.No wind80%29.80 "Hg10 mi
1:35 AM32 °FOvercast.6 mph75%29.80 "Hg10 mi
1:15 AM32 °FOvercast.6 mph75%29.80 "Hg10 mi
12:55 AM32 °FOvercast.6 mph75%29.81 "Hg10 mi
12:35 AM32 °FOvercast.8 mph75%29.81 "Hg10 mi
11:55 PM
Jan 28
30 °FOvercast.9 mph75%29.83 "Hg10 mi
11:35 PM30 °FOvercast.9 mph75%29.84 "Hg10 mi
11:15 PM30 °FOvercast.8 mph75%29.86 "Hg10 mi
Weather by CustomWeather, © 2014

See weather overviewHow to use our weather pages